Content
SEND FEEDBACK

Daily
Averages
Monthly
Summary
United States of America

LAKE CLARK NATIONAL PARK, ALASKA


Home > North America > United States > Alaska
Elevation: 160 feet     Latitude: 59 45N     Longitude: 154 55W

WEATHER
 
SELECT A DAY
Number of Records: 193,267;   Date Range: 1/1/95 - 7/26/14
 
SHARE

PRINT THIS DATA

[ ← Previous Day ]
WEATHER ALMANAC - JANUARY 31, 2013
[ Next Day → ]
[ °C ]   °F
Weather ElementAverageHighLow
Temperature32.6 °F36 °F (12:53 pm)28 °F (8:53 pm)
Dewpoint32.5 °F35.6 °F (1:02 pm)28 °F (8:53 pm)
Humidity99.5 %100 % (12:23 am)93 % (3:53 pm)
Barometer29.83 in29.88 in (12:53 pm)29.70 in (12:23 am)
Wind Speed3.1 mph11.5 mph (4:02 pm)
Weather ElementAverage
Visibility3.7 mi
Wind DirectionENE (81.9 °)

Weather ElementTotal
Precipitation---
Heating Degree Days33 (Base 65)
Averaged from 64 records on January 31, 2013
WEATHER CONDITIONS BREAKOUT
WIND DIRECTION BREAKOUT
WEATHER BY HOUR - JANUARY 31, 2013
[ °C ]   °F
Local TimeTemperatureDewpointHumidityBarometerVisibilityWind DirectionWind SpeedGust SpeedPrecipitationEventsConditions
12:23 AM33.8 °F33.8 °F100 %29.70 in10.0 miSouth (170°)5.8 mph0.00 inOvercast
12:53 AM34.0 °F34.0 °F100 %29.72 in10.0 miSSE (160°)6.9 mph0.00 inOvercast
1:53 AM34.0 °F33.1 °F96 %29.75 in10.0 miCalmOvercast
3:32 AM33.8 °F33.8 °F100 %29.76 in5.0 miCalm0.00 inOvercast
3:53 AM33.1 °F33.1 °F100 %29.77 in5.0 miCalm0.00 inOvercast
4:21 AM33.8 °F33.8 °F100 %29.77 in7.0 miCalmOvercast
4:45 AM33.8 °F33.8 °F100 %29.77 in4.0 miCalmOvercast
4:53 AM33.1 °F33.1 °F100 %29.78 in5.0 miCalmOvercast
5:35 AM33.8 °F33.8 °F100 %29.78 in2.5 miCalmOvercast
5:53 AM33.1 °F33.1 °F100 %29.79 in1.8 miCalmOvercast
6:24 AM33.8 °F33.8 °F100 %29.79 in2.0 miCalm0.00 inRainLight Rain
6:43 AM33.8 °F33.8 °F100 %29.79 in2.0 miCalm0.00 inOvercast
6:51 AM33.8 °F33.8 °F100 %29.79 in1.5 miCalm0.00 inOvercast
6:53 AM33.1 °F33.1 °F100 %29.80 in1.5 miCalm0.00 inOvercast
6:59 AM33.8 °F33.8 °F100 %29.79 in1.2 miCalmOvercast
7:23 AM33.8 °F33.8 °F100 %29.79 in0.8 miCalmMist
7:53 AM32.0 °F32.0 °F100 %29.81 in1.5 miCalmOvercast
8:03 AM32.0 °F32.0 °F100 %29.80 in1.5 miCalmOvercast
8:09 AM32.0 °F32.0 °F100 %29.80 in2.0 miCalmOvercast
8:27 AM32.0 °F32.0 °F100 %29.80 in1.5 miCalmOvercast
8:39 AM33.8 °F33.8 °F100 %29.80 in0.8 miCalmMist
8:53 AM32.0 °F32.0 °F100 %29.82 in0.5 miCalmFogFog
9:14 AM32.0 °F32.0 °F100 %29.81 in0.8 miNorth (350°)4.6 mphOvercast
9:28 AM32.0 °F32.0 °F100 %29.82 in1.0 miNorth (360°)3.5 mphOvercast
9:34 AM32.0 °F32.0 °F100 %29.82 in0.8 miNorth (360°)3.5 mphOvercast
9:53 AM32.0 °F32.0 °F100 %29.83 in0.5 miNNW (340°)3.5 mphFogFog
10:07 AM32.0 °F32.0 °F100 %29.83 in2.0 miNorth (10°)3.5 mphOvercast
10:22 AM32.0 °F32.0 °F100 %29.83 in0.8 miNNE (20°)3.5 mphOvercast
10:41 AM33.8 °F33.8 °F100 %29.83 in3.0 miCalmPartly Cloudy
10:53 AM33.1 °F33.1 °F100 %29.85 in3.0 miCalmPartly Cloudy
11:00 AM33.8 °F33.8 °F100 %29.84 in1.0 miCalmScattered Clouds
11:07 AM33.8 °F33.8 °F100 %29.85 in0.8 miCalmMostly Cloudy
11:48 AM33.8 °F33.8 °F100 %29.86 in0.8 miCalmOvercast
11:53 AM33.1 °F33.1 °F100 %29.87 in1.0 miCalmOvercast
12:04 PM33.8 °F33.8 °F100 %29.86 in4.0 miCalmOvercast
12:12 PM33.8 °F33.8 °F100 %29.86 in2.0 miCalmOvercast
12:44 PM33.8 °F33.8 °F100 %29.87 in6.0 miCalmOvercast
12:53 PM36.0 °F35.1 °F97 %29.88 in6.0 miNorth (350°)3.5 mphOvercast
1:02 PM35.6 °F35.6 °F100 %29.86 in6.0 miNorth (10°)5.8 mphMostly Cloudy
1:13 PM35.6 °F35.6 °F100 %29.86 in6.0 miNorth (10°)5.8 mphMostly Cloudy
1:53 PM35.1 °F35.1 °F100 %29.88 in3.0 miNE (40°)3.5 mphOvercast
2:53 PM35.1 °F35.1 °F100 %29.87 in2.0 miNNE (30°)8.1 mphOvercast
2:58 PM35.6 °F35.6 °F100 %29.85 in3.0 miNNE (30°)8.1 mphOvercast
3:53 PM36.0 °F34.0 °F93 %29.86 in7.0 miNorth (10°)10.4 mphMostly Cloudy
4:02 PM35.6 °F33.8 °F93 %29.84 in8.0 miNNE (20°)11.5 mphScattered Clouds
4:53 PM34.0 °F33.1 °F96 %29.86 in8.0 miNE (50°)8.1 mphScattered Clouds
5:08 PM33.8 °F33.8 °F100 %29.85 in5.0 miENE (60°)9.2 mphOvercast
5:42 PM32.0 °F32.0 °F100 %29.85 in3.0 miSSE (160°)6.9 mphMostly Cloudy
5:46 PM32.0 °F32.0 °F100 %29.85 in2.0 miSSE (150°)5.8 mphOvercast
5:47 PM32.0 °F32.0 °F100 %29.85 in1.0 miSSE (150°)5.8 mphOvercast
5:53 PM30.9 °F30.9 °F100 %29.87 in1.0 miSSE (150°)4.6 mphOvercast
6:05 PM30.2 °F30.2 °F100 %29.86 in0.8 miSSE (150°)5.8 mphOvercast
6:08 PM30.2 °F30.2 °F100 %29.86 in0.5 miSSE (160°)4.6 mphOvercast
6:15 PM30.2 °F30.2 °F100 %29.86 in1.0 miSouth (170°)3.5 mphOvercast
6:18 PM30.2 °F30.2 °F100 %29.86 in2.0 miSouth (170°)5.8 mphOvercast
6:21 PM30.2 °F30.2 °F100 %29.86 in3.0 miSouth (170°)4.6 mphOvercast
6:53 PM30.9 °F30.9 °F100 %29.88 in6.0 miSouth (190°)5.8 mphOvercast
7:13 PM30.2 °F30.2 °F100 %29.87 in6.0 miSouth (170°)5.8 mphOvercast
7:53 PM28.9 °F28.9 °F100 %29.88 in8.0 miNNW (330°)4.6 mphOvercast
8:53 PM28.0 °F28.0 °F100 %29.88 in8.0 miCalmOvercast
9:24 PM28.4 °F28.4 °F100 %29.87 in8.0 miNorth (350°)3.5 mphScattered Clouds
9:53 PM28.0 °F28.0 °F100 %29.88 in10.0 miNorth (360°)6.9 mphScattered Clouds
10:53 PM28.9 °F28.0 °F96 %29.88 in10.0 miNNE (20°)8.1 mphClear
11:53 PM28.0 °F28.0 °F100 %29.88 in10.0 miNorth (10°)9.2 mphClear
Hourly data recorded from PAIL, located miles away from Lake Clark National Park, Alaska







STORIES FROM OUR PARTNERS